Vertical_Velocity
-3 -2 -1 -2 -2 -3 0 4 4 2 -5 -7 -1 -3 -2 -1 5 2 -3 2 1 -7 -4 28 16 12 -49 -20 22 17 9 3 -3 5 1 11 1 3 -5 -3 -4 -5 -4 -1 0 -2 -0 2 -1
-0 -4 -3 -2 -1 -2 -2 -2 3 6 -1 -4 -5 -3 -2 -4 -2 -0 -1 0 1 -9 -3 -1 12 15 6 -18 16 6 8 15 -4 12 -1 4 6 4 2 -4 0 -1 -4 -5 0 -4 -2 -1 -0
-1 -4 -0 -3 -4 -1 -3 -1 -1 6 5 3 -3 2 2 -3 -6 -1 8 12 -12 -5 -3 0 -1 7 1 11 -46 3 24 -19 -3 16 -8 6 5 7 4 -1 -2 1 2 -2 1 -0 -1 -3 -2
-1 -2 -3 -1 -3 1 -2 4 -3 -3 4 4 2 6 6 5 -1 -7 -10 2 4 -6 -6 -1 7 -1 5 4 8 12 -38 -3 8 2 7 -6 7 4 1 1 0 2 -8 3 4 2 -2 1 -2
-3 -0 -2 -5 -1 3 -1 -7 -1 6 -1 8 1 -2 -3 -3 0 -4 -5 -4 2 8 -1 6 2 -0 2 -3 -8 26 11 -7 -20 -0 5 5 9 -3 7 -1 2 2 -4 -0 0 7 -0 2 -1
-0 -2 -4 -3 0 1 -4 -1 1 1 -2 -7 2 1 -2 -3 -2 1 3 3 -6 2 11 20 -0 -0 13 6 -1 37 -1 -17 -15 10 8 5 1 3 -3 2 -2 -0 -0 -6 -1 -2 5 -0 -3
-0 -3 -4 -3 -4 1 -6 -5 -2 -3 2 -7 -2 -6 1 -8 -4 4 -2 1 -8 14 11 12 1 6 80 49 4 -2 -6 -25 1 5 10 7 -3 6 1 1 -1 0 -1 -4 -1 -0 1 1 -2
1 -3 -1 -2 -2 -0 1 6 -2 -4 1 0 -3 -2 1 -2 -1 3 -1 -5 -1 -5 1 -0 18 -2 -31 -40 17 -2 -1 -4 3 5 7 11 4 7 3 3 -2 -3 -1 -4 -3 1 5 0 -0
0 -3 -2 -1 1 -2 -2 2 3 4 -0 -1 -2 3 4 -3 -1 5 7 -7 -6 -5 -7 -7 9 18 -7 -15 2 7 5 -1 6 4 5 4 1 8 1 3 0 -2 1 -4 -3 0 4 -2 -0
-3 -4 -0 2 7 -1 -3 4 4 0 -1 3 2 2 6 -4 -1 4 -1 0 5 -0 6 2 12 7 16 2 -2 -2 -18 1 2 9 -6 -9 4 10 4 1 -2 1 1 -2 -6 -2 -1 1 2
-0 -7 4 -4 6 -3 -9 -1 1 2 -5 3 2 2 -1 8 -1 -2 4 7 8 8 1 -2 10 20 7 8 -15 1 -7 -11 -14 -1 7 4 3 4 -2 2 -5 2 -2 2 -7 -6 1 -4 -0
-3 3 4 -9 -0 -5 -6 3 1 2 0 -3 -1 2 -2 6 -3 -3 7 4 -0 -4 5 -3 7 15 5 -0 -5 -7 1 2 -8 5 3 -12 1 -3 4 6 2 3 5 -2 -4 -6 1 -1 -2
2 -5 0 0 -4 -2 -0 6 -2 -4 -3 -2 1 2 1 -3 3 0 -1 -2 -1 1 -9 -3 2 -3 2 7 3 6 -2 -3 3 9 6 3 3 4 1 -0 2 4 6 -0 -5 -2 -1 -2 -5
1 -4 -5 -2 -5 -5 8 -2 4 9 2 -1 -5 -3 4 2 -1 -1 -4 2 1 5 -0 -9 21 -8 13 9 -2 -5 -1 1 4 8 2 9 2 7 6 -4 -1 -1 1 4 -5 -3 -1 -3 1
-3 -15 5 4 -5 -1 6 -10 -10 2 6 3 -2 -6 3 -5 -6 4 5 9 5 -3 -13 9 -0 -1 8 -3 9 0 0 -14 9 0 4 10 10 6 9 -10 -8 -7 5 -1 -1 -4 1 4 -3
-3 -6 -1 3 10 14 13 -39 10 -2 2 5 -1 -3 -6 2 -5 -4 -1 0 4 5 -9 9 -5 -6 0 4 9 11 4 5 -6 -2 -1 3 0 -5 4 -5 -11 6 -1 -1 0 -2 1 0 -2
-2 -12 3 -14 5 -1 5 -6 8 -3 -1 4 -1 -2 -1 -0 -7 -7 -3 -1 0 3 -2 -2 8 0 -8 29 -15 7 3 2 2 1 3 5 5 3 -22 -3 3 1 3 3 -0 -2 -2 0 2
-2 -0 1 -5 -3 -3 -1 -3 -10 -3 -1 -2 -2 -2 1 7 -2 -3 -1 -1 -3 -1 0 -4 -2 1 14 4 5 9 -5 -0 12 4 -0 2 -1 -7 3 7 4 5 -3 2 -1 2 -1 -1 1
6 -6 2 5 -6 -8 -1 -7 -1 -1 -5 -3 -1 0 -2 -2 -3 -6 -2 -2 -3 3 3 3 -6 -4 -10 -3 -1 1 5 8 2 -1 -5 -11 1 4 1 -6 4 -1 -4 0 2 1 -2 -0 1
3 2 -18 -3 -1 11 -5 -4 -2 -8 -8 0 -0 -0 1 -3 -0 -3 -4 -4 -3 -1 1 -4 2 3 4 5 -0 3 11 2 6 2 2 8 -3 -2 -1 0 -1 1 -5 -0 -1 0 1 -3 0
-2 -1 -11 -4 6 4 7 -11 -5 -6 -5 -4 -4 1 -6 -6 -6 0 1 0 -1 -1 1 -0 -1 -0 1 -3 -4 -3 -4 2 0 3 6 2 5 6 7 2 5 1 -5 -1 -1 -3 -2 4 3
1 -2 3 -5 13 -3 7 -12 -4 -1 -5 -6 -0 -6 1 -2 -6 -7 -5 -1 3 -1 -0 -3 -3 -4 -6 -4 -1 -0 1 -5 -2 -5 3 -7 -3 -6 2 -0 -0 -0 1 -3 1 4 0 3 2
-29 17 4 8 7 8 3 5 -17 -3 -7 -12 -1 -4 -3 2 -2 -3 -1 -0 2 0 1 -1 -3 -1 -2 -4 -4 -3 -5 -4 -4 -3 -4 3 -3 1 2 -3 1 2 -3 3 2 0 0 3 1
8 1 6 3 9 7 -7 10 -10 -7 -16 -7 -0 0 -3 3 -6 -3 -4 -5 -5 -3 -1 -2 -2 -4 -3 -2 -2 -2 -2 -6 -7 -7 -9 -5 -7 -1 6 -4 0 5 -1 -1 3 1 2 2 4
5 9 -3 -1 3 -6 -4 10 -20 -2 -9 -0 -10 -0 5 2 -2 -5 -10 -7 -7 -5 -1 -1 -1 -1 -1 -0 -5 -5 -1 -4 -2 -4 -1 -4 1 -2 -2 -0 -0 1 2 1 2 9 7 8 4
2 1 -6 -4 -2 -7 5 -4 -10 3 4 1 -8 -9 12 7 6 -3 -7 -7 -5 -4 -4 -2 -4 -3 -4 -3 -2 -5 -4 -3 -1 -2 2 1 -1 2 5 8 4 4 4 6 10 13 13 -17 -2
-23 5 -10 14 5 3 -5 -8 -10 -2 2 -4 -10 2 -10 -1 3 1 2 -2 -3 -7 -3 -0 -1 1 -5 -1 2 -2 -1 -1 5 5 -1 1 2 3 5 0 -0 1 5 10 9 4 -5 -18 0
-1 8 8 5 -1 -1 -2 -1 -16 -6 -6 6 -9 -10 -9 -3 1 -1 -4 -3 -3 -2 4 2 3 4 7 7 3 4 8 6 2 1 2 5 8 2 9 14 6 4 5 -2 -4 -24 3 -0 1
8 1 4 13 12 -3 -1 -12 -15 -9 -4 7 2 -15 -9 -8 -2 1 0 -0 2 5 0 5 1 6 5 12 6 9 12 13 13 11 6 3 3 11 15 2 3 -6 1 -28 9 6 4 4 2
7 4 6 11 -4 -1 4 -35 -8 -10 -7 -2 10 1 -6 -2 1 4 -1 2 -1 0 2 2 9 0 16 8 7 2 9 10 5 4 14 2 2 -10 -24 -24 -8 6 8 11 7 3 2 7 4
Height
3130 3129 3128 3127 3133 3128 3126 3128 3125 3120 3120 3119 3117 3117 3117 3115 3114 3116 3114 3114 3114 3115 3116 3118 3120 3120 3122 3124 3128 3136 3139 3137 3141 3142 3142 3142 3143 3142 3145 3147 3149 3151 3153 3155 3156 3158 3159 3159 3160
3129 3129 3128 3128 3130 3128 3128 3126 3125 3120 3119 3118 3117 3115 3114 3114 3113 3112 3109 3112 3113 3112 3113 3117 3121 3119 3120 3119 3128 3130 3137 3137 3140 3140 3141 3143 3144 3144 3145 3147 3150 3152 3154 3156 3157 3159 3160 3160 3161
3130 3129 3130 3128 3128 3128 3126 3124 3123 3121 3120 3117 3115 3113 3111 3111 3111 3113 3113 3112 3112 3111 3112 3114 3113 3113 3113 3113 3124 3124 3130 3132 3138 3137 3140 3143 3144 3145 3145 3147 3149 3151 3153 3156 3157 3159 3160 3161 3162
3129 3130 3131 3129 3128 3126 3125 3122 3121 3121 3120 3117 3113 3111 3109 3107 3108 3108 3109 3109 3109 3106 3108 3111 3109 3107 3108 3103 3110 3121 3127 3133 3135 3136 3139 3142 3145 3146 3147 3147 3148 3150 3152 3155 3158 3159 3161 3162 3164
3129 3129 3129 3128 3126 3124 3122 3121 3121 3120 3118 3115 3111 3108 3106 3105 3103 3105 3107 3105 3105 3102 3101 3103 3102 3102 3103 3103 3109 3114 3119 3126 3133 3137 3138 3141 3143 3144 3146 3147 3149 3150 3151 3156 3159 3161 3161 3162 3163
3128 3129 3128 3127 3126 3123 3121 3120 3119 3117 3115 3112 3109 3105 3103 3100 3100 3101 3101 3101 3100 3099 3100 3100 3098 3098 3099 3102 3103 3108 3115 3120 3131 3135 3137 3139 3141 3144 3145 3147 3149 3150 3151 3156 3160 3162 3162 3163 3163
3127 3127 3127 3127 3124 3121 3120 3119 3117 3114 3112 3109 3106 3103 3100 3097 3097 3096 3095 3095 3096 3096 3096 3097 3096 3099 3092 3095 3105 3111 3112 3118 3126 3132 3137 3139 3142 3143 3144 3146 3149 3150 3151 3155 3160 3162 3163 3163 3163
3126 3126 3125 3124 3123 3122 3120 3118 3115 3112 3109 3105 3103 3100 3098 3097 3094 3092 3091 3092 3092 3093 3092 3089 3094 3098 3099 3099 3100 3110 3110 3115 3123 3129 3134 3137 3140 3143 3144 3146 3148 3150 3151 3154 3161 3163 3163 3163 3164
3124 3125 3123 3122 3121 3120 3118 3116 3113 3110 3107 3103 3100 3097 3095 3093 3090 3089 3089 3090 3090 3092 3092 3089 3092 3097 3099 3104 3107 3108 3109 3112 3120 3127 3133 3136 3139 3142 3144 3145 3148 3151 3152 3153 3159 3162 3163 3164 3166
3122 3122 3121 3121 3120 3118 3116 3114 3111 3109 3105 3101 3097 3094 3091 3089 3087 3087 3086 3088 3087 3089 3090 3091 3093 3096 3098 3102 3100 3106 3108 3112 3115 3123 3127 3132 3139 3141 3142 3145 3148 3151 3153 3154 3156 3160 3162 3163 3166
3119 3119 3119 3117 3116 3114 3112 3111 3109 3106 3104 3100 3094 3092 3089 3084 3083 3084 3086 3086 3086 3087 3089 3090 3092 3093 3097 3099 3100 3104 3107 3112 3118 3120 3126 3134 3137 3140 3142 3144 3148 3152 3153 3154 3157 3160 3162 3164 3165
3117 3117 3116 3114 3113 3111 3109 3108 3107 3104 3102 3099 3095 3091 3088 3083 3080 3082 3084 3084 3084 3084 3086 3089 3089 3093 3094 3096 3098 3102 3106 3109 3115 3120 3126 3131 3137 3140 3142 3145 3148 3152 3153 3157 3158 3160 3161 3163 3164
3112 3113 3113 3113 3111 3110 3107 3106 3104 3102 3101 3096 3094 3091 3090 3086 3081 3080 3082 3082 3082 3081 3083 3085 3088 3090 3094 3095 3098 3100 3104 3108 3115 3121 3125 3131 3135 3138 3141 3144 3148 3152 3154 3156 3157 3160 3160 3161 3163
3109 3109 3110 3109 3109 3108 3106 3104 3100 3100 3098 3095 3092 3089 3088 3087 3084 3083 3082 3082 3081 3077 3079 3081 3081 3086 3089 3094 3095 3099 3104 3108 3114 3120 3125 3129 3134 3137 3140 3143 3148 3152 3155 3155 3157 3159 3160 3160 3162
3106 3106 3105 3105 3107 3105 3104 3101 3097 3096 3095 3093 3091 3089 3087 3085 3083 3082 3081 3079 3078 3074 3074 3078 3080 3081 3087 3090 3092 3098 3099 3104 3113 3120 3123 3128 3131 3135 3138 3142 3148 3151 3154 3155 3156 3158 3160 3160 3160
3104 3104 3101 3102 3103 3104 3102 3095 3096 3094 3092 3090 3089 3087 3085 3084 3083 3082 3081 3078 3075 3075 3073 3076 3079 3081 3082 3087 3090 3094 3095 3102 3108 3111 3119 3125 3129 3132 3136 3141 3147 3150 3153 3153 3154 3155 3157 3158 3159
3099 3099 3099 3099 3101 3099 3096 3092 3093 3091 3090 3089 3088 3086 3084 3084 3082 3080 3079 3079 3077 3075 3073 3073 3076 3079 3083 3086 3088 3090 3094 3099 3104 3107 3116 3122 3127 3130 3135 3141 3145 3148 3149 3151 3153 3155 3156 3157 3157
3094 3096 3096 3095 3097 3094 3092 3090 3091 3090 3088 3087 3086 3086 3084 3084 3083 3083 3080 3079 3077 3075 3074 3070 3074 3076 3080 3084 3087 3089 3093 3097 3101 3107 3111 3118 3122 3128 3136 3140 3143 3145 3147 3149 3151 3154 3155 3156 3156
3092 3093 3092 3093 3094 3092 3091 3090 3089 3089 3087 3084 3084 3084 3085 3084 3083 3082 3081 3081 3078 3077 3076 3072 3071 3076 3079 3082 3084 3088 3090 3094 3101 3104 3108 3114 3121 3127 3133 3137 3139 3143 3147 3148 3150 3151 3152 3153 3154
3088 3089 3088 3089 3091 3090 3089 3088 3087 3086 3085 3084 3083 3083 3084 3083 3083 3081 3082 3081 3080 3079 3078 3076 3075 3074 3077 3079 3082 3085 3089 3094 3099 3103 3107 3113 3118 3125 3129 3133 3138 3141 3144 3145 3147 3149 3150 3150 3150
3083 3084 3086 3086 3085 3085 3085 3085 3084 3083 3081 3080 3079 3080 3080 3082 3082 3082 3083 3083 3082 3082 3082 3080 3079 3079 3080 3080 3081 3084 3090 3094 3096 3101 3105 3109 3115 3121 3125 3130 3134 3137 3140 3143 3144 3145 3146 3147 3146
3077 3081 3083 3083 3083 3081 3080 3079 3079 3079 3078 3077 3076 3076 3077 3079 3080 3080 3082 3083 3084 3084 3084 3083 3083 3083 3084 3084 3085 3088 3090 3092 3096 3102 3105 3109 3112 3119 3125 3128 3131 3134 3135 3138 3140 3141 3141 3142 3142
3072 3079 3080 3080 3079 3077 3076 3076 3074 3075 3073 3073 3073 3072 3074 3076 3078 3080 3081 3083 3084 3085 3085 3085 3085 3085 3086 3088 3090 3092 3093 3095 3098 3100 3103 3108 3112 3118 3123 3125 3128 3131 3133 3134 3135 3135 3135 3136 3136
3073 3075 3076 3075 3074 3069 3071 3072 3066 3069 3069 3068 3069 3069 3070 3073 3075 3078 3079 3080 3082 3083 3085 3085 3085 3086 3087 3089 3091 3093 3094 3096 3098 3101 3104 3108 3113 3117 3121 3121 3124 3128 3129 3130 3131 3130 3129 3129 3129
3068 3071 3073 3073 3069 3063 3066 3064 3060 3062 3063 3062 3064 3065 3066 3069 3072 3073 3074 3076 3078 3081 3082 3083 3084 3085 3087 3089 3090 3092 3093 3095 3097 3100 3103 3107 3111 3114 3115 3118 3121 3123 3124 3125 3125 3124 3122 3120 3119
3060 3065 3066 3067 3067 3062 3062 3055 3055 3056 3058 3058 3060 3059 3061 3063 3067 3070 3071 3073 3075 3078 3080 3081 3082 3084 3085 3087 3088 3090 3091 3093 3095 3098 3101 3105 3108 3110 3111 3114 3116 3117 3118 3118 3118 3117 3112 3106 3112
3053 3055 3061 3060 3058 3058 3054 3052 3051 3053 3054 3054 3054 3053 3057 3058 3062 3066 3068 3070 3072 3074 3074 3076 3078 3080 3082 3084 3086 3087 3089 3091 3093 3095 3097 3100 3102 3105 3107 3108 3108 3109 3110 3110 3109 3109 3108 3107 3108
3049 3055 3055 3054 3057 3057 3048 3047 3046 3048 3049 3049 3049 3052 3055 3057 3058 3062 3064 3066 3068 3070 3071 3072 3073 3074 3077 3080 3081 3083 3085 3086 3089 3090 3092 3093 3095 3097 3099 3100 3101 3102 3103 3103 3102 3099 3102 3102 3101
3046 3046 3049 3050 3048 3047 3047 3040 3043 3044 3046 3045 3046 3048 3052 3055 3056 3057 3059 3062 3064 3066 3067 3068 3069 3070 3071 3073 3076 3078 3079 3081 3082 3084 3087 3088 3087 3088 3090 3091 3092 3093 3094 3089 3095 3096 3097 3095 3094
3040 3041 3043 3043 3043 3042 3038 3028 3040 3042 3042 3042 3043 3044 3048 3052 3053 3053 3054 3057 3059 3060 3062 3062 3064 3065 3066 3067 3068 3069 3072 3074 3077 3077 3079 3080 3079 3079 3079 3081 3083 3083 3085 3086 3086 3089 3089 3087 3086